Regional Weather Roundup
Issued by NWS Kansas City/Pleasant Hill, MO

Home | Current Version | Previous Version | Graphics & Text | Print | Product List | Glossary Off
Versions: 1 2 3 4 5 6 7 8 9 10 11 12 13 14 15 16 17 18 19 20 21 22 23 24 25 26 27 28 29 30 31 32 33 34 35 36 37 38 39 40 41 42 43 44 45 46 47 48 49 50

000
ASUS43 KEAX 242010
RWREAX

WEATHER ROUNDUP FOR EASTERN KANSAS AND NORTHWEST MISSOURI
NATIONAL WEATHER SERVICE KANSAS CITY/PLEASANT HILL MO
300 PM CDT THU APR 24 2014

KSZ040-057-103>105-MOZ028-029-037-043-242100-
...KANSAS CITY METROPOLITAN AREA...

CITY           SKY/WX    TMP DP  RH WIND       PRES   REMARKS
K.C. INTL      CLOUDY    58  53  84 NW22G28   29.65R
K.C. DOWNTOWN  CLOUDY    58  53  84 N13G20    29.65R
LEES SUMMIT    CLOUDY    57  53  86 NW8       29.66R
OLATHE - IXD   CLOUDY    56  53  90 NW21      29.68R
OLATHE - OJC   CLOUDY    56  52  86 NW15G25   29.67R
LAWRENCE       CLOUDY    59  53  80 NW16      29.69R

$$

MOZ001>008-011>017-020>025-030>033-038>040-044>046-053-054-242100-
...NORTHERN AND CENTRAL MISSOURI...

CITY           SKY/WX    TMP DP  RH WIND       PRES   REMARKS
ST. JOSEPH     CLOUDY    56  52  86 N13       29.67S
MOSBY          LGT RAIN  55  54  94 NW8       29.64R
WARRENSBURG    TSTM     N/A N/A N/A SW10      29.69R
WHITEMAN AFB   RAIN      58  52  79 W12       29.66R
CLINTON        HVY RAIN  57  57 100 NW20      29.66F
SEDALIA        TSTM      59  55  87 W12       29.67R FOG
WARSAW         NOT AVBL
MARSHALL       TSTM      61  57  88 SW6       29.66R
CHILLICOTHE      N/A     55  53  93 S6        29.63R
MOBERLY        CLOUDY    61  52  72 SE3       29.64F
KIRKSVILLE     HVY RAIN  52  50  93 S8        29.65R FOG

$$

MOZ041-047>049-056>058-063>065-088>090-097-242100-
...EASTERN AND SOUTHERN MISSOURI...

CITY           SKY/WX    TMP DP  RH WIND       PRES   REMARKS
ST. LOUIS INTL PTSUNNY   80  46  30 S21G26    29.67F
SPIRIT OF STL  PTSUNNY   77  47  34 S15G24    29.63F
COLUMBIA       PTSUNNY   77  52  41 S18G24    29.61F
JEFFERSON CITY PTSUNNY   76  51  41 S16G23    29.61F
MEXICO         CLOUDY    73  50  43 SE10      29.60F
HANNIBAL       CLOUDY    66  48  52 NE6       29.62F
ROLLA          CLOUDY    74  51  44 S14       29.63F
LEBANON        CLOUDY    77  50  38 SW15G26   29.64F
OSAGE BEACH    PTSUNNY   77  52  41 S16G25    29.64S
SPRINGFIELD    RAIN      64  60  87 SW16G31   29.66R FOG
BRANSON        LGT RAIN  70  55  60 SW20G30   29.71R
NEVADA         CLOUDY    61  57  88 CALM      29.67R
JOPLIN         CLOUDY    68  61  78 SW16G28   29.63F
WEST PLAINS    CLOUDY    72  53  51 S14       29.71R
MALDEN         CLOUDY    81  54  39 S18G28    29.74F

$$

IAZ060-094-KSZ022-034>040-054-083-096-NEZ052-066-093-242100-
...KANSAS...SOUTHEAST NEBRASKA AND IOWA...

CITY           SKY/WX    TMP DP  RH WIND       PRES   REMARKS
TOPEKA         CLOUDY    62  52  69 NW16      29.70S
MANHATTAN      CLOUDY    60  47  61 NW8G22    29.77R
EMPORIA        CLOUDY    60  48  64 NW20G30   29.74R
CHANUTE        CLOUDY    60  55  83 NW18G30   29.70R
WICHITA        CLOUDY    64  40  41 NW22G31   29.81R
OMAHA          CLOUDY    59  48  67 N13       29.75R
LINCOLN        CLOUDY    65  40  39 N18G29    29.77R
FALLS CITY     CLOUDY    57  50  77 NW16G26   29.70R
LAMONI         LGT RAIN  53  50  89 N15G23    29.65R FOG
DES MOINES     DRIZZLE   55  50  83 NW16G22   29.68R

$$




USA.gov is the U.S. government's official web portal to all federal, state and local government web resources and services.